KB1YYC Weather Reports


Display with metric or nautical units.
time (UTC)temp
F
wind
direction
speed
MPH
gust
MPH
rain 1hr
in
rain 24hr
in
rain mn
in
humidity
%
barometer
mb
20260507212902 59 333 2.0 6.0 0.00 0.01 0.01 34 1005.0
20260507212358 58 281 1.0 5.0 0.00 0.01 0.01 35 1005.1
20260507211854 59 279 3.0 3.0 0.00 0.01 0.01 36 1004.9
20260507211351 59 309 2.0 3.0 0.00 0.01 0.01 34 1005.0
20260507210848 59 35 4.0 6.0 0.00 0.01 0.01 35 1005.1
20260507210345 60 303 3.0 5.0 0.00 0.01 0.01 33 1005.0
20260507205842 60 98 2.0 6.0 0.00 0.01 0.01 33 1004.9
20260507205338 60 294 3.0 6.0 0.00 0.01 0.01 33 1004.8
20260507204835 60 314 4.0 7.0 0.00 0.01 0.01 35 1004.9
20260507204332 61 280 1.0 7.0 0.00 0.01 0.01 33 1004.6
20260507203830 60 332 2.0 6.0 0.00 0.01 0.01 33 1004.7
20260507203328 60 326 4.0 6.0 0.00 0.01 0.01 33 1004.7
20260507202823 61 326 3.0 7.0 0.00 0.01 0.01 32 1004.7
20260507202320 61 269 1.0 3.0 0.00 0.01 0.01 34 1004.8
20260507201815 61 249 1.0 3.0 0.00 0.01 0.01 34 1004.8
20260507201311 61 349 5.0 8.0 0.00 0.01 0.01 33 1004.7
20260507200808 60 275 1.0 7.0 0.00 0.01 0.01 33 1004.5
20260507200304 61 352 3.0 6.0 0.00 0.01 0.01 34 1004.6
20260507195800 62 9 3.0 7.0 0.00 0.01 0.01 33 1004.6
20260507195257 61 286 2.0 6.0 0.00 0.01 0.01 33 1004.7
20260507194755 61 316 1.0 5.0 0.00 0.01 0.01 34 1004.8
20260507194250 62 301 1.0 2.0 0.00 0.01 0.01 33 1004.7
20260507193747 61 282 1.0 7.0 0.00 0.01 0.01 33 1004.8
20260507193244 61 56 2.0 2.0 0.00 0.01 0.01 32 1004.7
20260507192740 61 280 3.0 5.0 0.00 0.01 0.01 33 1004.9
20260507192237 62 325 4.0 8.0 0.00 0.01 0.01 32 1004.9
20260507191733 60 298 0.0 7.0 0.00 0.01 0.01 34 1005.0
20260507191230 59 356 4.0 6.0 0.00 0.01 0.01 34 1005.1
20260507190727 61 263 4.0 8.0 0.00 0.01 0.01 34 1005.2
20260507190225 62 349 7.0 13.0 0.00 0.01 0.01 32 1005.1
20260507185724 62 346 3.0 7.0 0.00 0.01 0.01 32 1005.1
20260507185220 62 252 3.0 6.0 0.00 0.01 0.01 31 1005.0
20260507184718 62 194 1.0 5.0 0.00 0.01 0.01 34 1005.1
20260507184215 62 300 3.0 9.0 0.00 0.01 0.01 33 1005.0
20260507183712 62 314 5.0 7.0 0.00 0.01 0.01 33 1005.2
20260507183209 62 16 2.0 2.0 0.00 0.01 0.01 33 1005.0
20260507182706 60 279 1.0 3.0 0.00 0.01 0.01 35 1005.3
20260507182201 61 290 3.0 6.0 0.00 0.01 0.01 35 1005.2
20260507181658 62 244 1.0 8.0 0.00 0.01 0.01 35 1005.2
20260507181154 61 277 3.0 5.0 0.00 0.01 0.01 36 1005.0
20260507180651 61 336 3.0 7.0 0.00 0.01 0.01 35 1005.2
20260507180148 62 329 4.0 7.0 0.00 0.01 0.01 32 1005.3
20260507175643 62 359 3.0 6.0 0.00 0.01 0.01 35 1005.0
20260507175141 62 38 1.0 2.0 0.00 0.01 0.01 36 1005.2
20260507174638 62 273 1.0 7.0 0.00 0.01 0.01 43 1005.4
20260507174137 60 340 4.0 9.0 0.00 0.01 0.01 44 1005.5
20260507173633 60 315 5.0 7.0 0.00 0.01 0.01 44 1005.3
20260507173130 60 346 4.0 9.0 0.00 0.01 0.01 47 1005.6
20260507172626 61 353 3.0 5.0 0.00 0.01 0.01 45 1005.5
20260507172124 59 285 2.0 3.0 0.00 0.01 0.01 46 1005.5
20260507171618 58 300 4.0 7.0 0.00 0.01 0.01 46 1005.8
20260507171116 60 284 5.0 8.0 0.00 0.01 0.01 47 1005.8
20260507170613 61 272 1.0 3.0 0.00 0.01 0.01 50 1005.8
20260507170110 61 295 2.0 3.0 0.00 0.01 0.01 47 1005.9
20260507165605 60 292 2.0 3.0 0.00 0.01 0.01 47 1005.8
20260507165102 58 354 3.0 5.0 0.00 0.01 0.01 50 1005.9
20260507164558 58 317 2.0 5.0 0.00 0.01 0.01 49 1005.8
20260507164055 58 346 3.0 8.0 0.00 0.01 0.01 48 1006.1
20260507163553 57 306 3.0 6.0 0.00 0.01 0.01 51 1006.0
20260507163051 57 289 3.0 5.0 0.00 0.01 0.01 51 1006.2
20260507162550 57 279 5.0 9.0 0.00 0.01 0.01 50 1006.1
20260507162048 59 314 1.0 3.0 0.00 0.01 0.01 50 1006.1
20260507161544 59 260 1.0 2.0 0.00 0.01 0.01 51 1006.1
20260507161040 59 326 1.0 5.0 0.00 0.01 0.01 54 1006.0
20260507160537 60 274 0.0 5.0 0.00 0.01 0.01 49 1006.1
20260507160033 60 49 3.0 7.0 0.00 0.01 0.01 48 1006.4
20260507155528 59 295 3.0 7.0 0.00 0.01 0.01 52 1006.3
20260507155026 60 298 3.0 6.0 0.00 0.01 0.01 51 1006.3
20260507154523 60 295 3.0 5.0 0.00 0.01 0.01 48 1006.4
20260507154020 60 309 1.0 5.0 0.00 0.01 0.01 52 1006.4
20260507153516 59 272 0.0 5.0 0.00 0.01 0.01 54 1006.4
20260507153013 58 267 0.0 6.0 0.00 0.01 0.01 54 1006.6
20260507152508 59 293 3.0 7.0 0.00 0.01 0.01 53 1006.5
20260507152005 58 328 3.0 5.0 0.00 0.01 0.01 54 1006.5
20260507151501 57 314 3.0 5.0 0.00 0.01 0.01 58 1006.4
20260507150959 57 282 1.0 3.0 0.00 0.01 0.01 58 1006.6
20260507150455 58 314 3.0 6.0 0.00 0.01 0.01 56 1006.6
20260507145951 57 291 2.0 5.0 0.00 0.01 0.01 58 1006.4
20260507145447 60 289 4.0 5.0 0.00 0.01 0.01 53 1006.5
20260507144945 60 53 3.0 3.0 0.00 0.01 0.01 52 1006.4
20260507144441 60 280 2.0 5.0 0.00 0.01 0.01 51 1006.5
20260507143938 60 275 3.0 7.0 0.00 0.01 0.01 49 1006.4
20260507143436 59 255 1.0 2.0 0.00 0.01 0.01 52 1006.4
20260507142932 59 17 2.0 5.0 0.00 0.01 0.01 52 1006.3
20260507142428 60 340 3.0 5.0 0.00 0.01 0.01 54 1006.3
20260507141926 59 295 1.0 3.0 0.00 0.01 0.01 56 1006.5
20260507141421 58 324 2.0 5.0 0.00 0.01 0.01 57 1006.7
20260507140918 58 318 1.0 3.0 0.00 0.01 0.01 58 1006.6
20260507140415 58 295 2.0 5.0 0.00 0.01 0.01 58 1006.8
20260507135913 57 301 2.0 2.0 0.00 0.01 0.01 60 1006.6
20260507135409 57 347 2.0 2.0 0.00 0.01 0.01 59 1006.7
20260507134907 57 108 1.0 2.0 0.00 0.01 0.01 60 1006.7
20260507134403 57 280 2.0 3.0 0.00 0.01 0.01 60 1006.7
20260507133859 57 242 2.0 3.0 0.00 0.01 0.01 60 1006.8
20260507133355 56 288 2.0 3.0 0.00 0.01 0.01 64 1006.9
20260507132854 56 288 3.0 5.0 0.00 0.01 0.01 62 1007.0
20260507132349 56 344 2.0 3.0 0.00 0.01 0.01 64 1006.9
20260507131847 55 279 2.0 2.0 0.00 0.01 0.01 65 1007.2
20260507131343 56 342 1.0 2.0 0.00 0.01 0.01 67 1006.9
20260507130840 55 308 2.0 3.0 0.00 0.01 0.01 65 1007.2
20260507130337 55 324 2.0 3.0 0.00 0.01 0.01 65 1007.2
20260507125837 54 316 1.0 3.0 0.00 0.01 0.01 70 1007.2
20260507125333 54 286 1.0 2.0 0.00 0.01 0.01 72 1007.2
20260507124831 54 334 1.0 2.0 0.00 0.01 0.01 70 1007.3
20260507124327 54 291 1.0 6.0 0.00 0.01 0.01 72 1007.1
20260507123826 53 314 1.0 5.0 0.00 0.01 0.01 74 1007.3
20260507123322 53 263 1.0 2.0 0.00 0.01 0.01 75 1007.2
20260507122818 52 297 1.0 1.0 0.00 0.01 0.01 77 1007.2
20260507122314 52 277 1.0 2.0 0.00 0.01 0.01 76 1007.3
20260507121810 51 312 1.0 3.0 0.00 0.01 0.01 79 1007.4
20260507121306 51 64 1.0 2.0 0.00 0.01 0.01 79 1007.3
20260507120803 50 271 0.0 3.0 0.00 0.01 0.01 81 1007.3
20260507120259 50 285 1.0 2.0 0.00 0.01 0.01 86 1007.3
20260507115755 50 254 0.0 1.0 0.00 0.01 0.01 87 1007.4
20260507115251 49 275 0.0 0.0 0.00 0.01 0.01 87 1007.3
20260507114747 48 279 0.0 1.0 0.00 0.01 0.01 89 1007.3
20260507114245 48 281 1.0 1.0 0.00 0.01 0.01 93 1007.4
20260507113742 47 287 1.0 1.0 0.00 0.01 0.01 95 1007.3
20260507113238 47 281 0.0 1.0 0.00 0.01 0.01 98 1007.3
20260507112737 47 281 0.0 1.0 0.00 0.01 0.01 98 1007.4
20260507112233 46 287 1.0 1.0 0.00 0.01 0.01 98 1007.0
20260507111731 46 275 0.0 0.0 0.00 0.01 0.01 98 1007.0
20260507111227 46 275 0.0 1.0 0.00 0.01 0.01 98 1007.1
20260507110723 46 272 0.0 0.0 0.00 0.01 0.01 98 1007.3
20260507110220 46 274 0.0 1.0 0.00 0.01 0.01 98 1007.4
20260507105717 46 275 0.0 0.0 0.00 0.01 0.01 98 1007.4
20260507105213 47 274 0.0 0.0 0.00 0.01 0.01 99 1007.5
20260507104710 47 279 0.0 0.0 0.00 0.01 0.01 99 1007.3
20260507104207 46 279 0.0 0.0 0.00 0.01 0.01 99 1006.9
20260507103703 47 281 0.0 0.0 0.00 0.01 0.01 99 1007.3
20260507103159 46 271 0.0 0.0 0.00 0.01 0.01 99 1007.7
20260507102656 46 274 0.0 0.0 0.00 0.01 0.01 99 1007.6
20260507102152 46 271 0.0 0.0 0.00 0.01 0.01 98 1007.1
20260507101648 46 275 0.0 0.0 0.00 0.01 0.01 98 1007.3
20260507101144 46 285 0.0 1.0 0.00 0.01 0.01 98 1007.7
20260507100641 46 282 1.0 1.0 0.00 0.01 0.01 98 1007.5
20260507100140 46 275 0.0 0.0 0.00 0.01 0.01 98 1007.3
20260507095637 46 281 0.0 0.0 0.00 0.01 0.01 97 1007.5
20260507095134 46 275 0.0 0.0 0.00 0.01 0.01 97 1007.2
20260507094630 46 274 0.0 0.0 0.00 0.01 0.01 97 1007.5
20260507094127 46 273 0.0 0.0 0.00 0.01 0.01 97 1007.4
20260507093624 46 274 0.0 1.0 0.00 0.01 0.01 97 1007.3
20260507093123 46 277 0.0 1.0 0.00 0.01 0.01 96 1007.1
20260507092619 46 273 0.0 0.0 0.00 0.01 0.01 96 1007.0
20260507092116 46 268 0.0 0.0 0.00 0.01 0.01 96 1007.0
20260507091613 46 272 0.0 0.0 0.00 0.01 0.01 96 1006.9
20260507091108 46 281 0.0 1.0 0.00 0.01 0.01 96 1006.7
20260507090604 46 280 0.0 2.0 0.00 0.01 0.01 97 1006.7
20260507085558 48 295 0.0 1.0 0.00 0.01 0.01 99 1006.7
20260507085055 48 270 0.0 0.0 0.00 0.01 0.01 99 1007.2
20260507084552 48 277 0.0 0.0 0.00 0.01 0.01 99 1007.0
20260507084049 48 275 0.0 1.0 0.00 0.01 0.01 99 1006.9
20260507083545 48 283 0.0 1.0 0.00 0.01 0.01 99 1006.6
20260507083042 48 272 0.0 0.0 0.00 0.01 0.01 99 1007.1
20260507082538 48 273 0.0 0.0 0.00 0.01 0.01 99 1007.2
20260507082035 48 269 0.0 0.0 0.00 0.01 0.01 99 1007.2
20260507081531 48 272 0.0 0.0 0.00 0.01 0.01 99 1006.9
20260507081028 48 270 0.0 1.0 0.00 0.01 0.01 99 1006.7
20260507080524 48 298 1.0 1.0 0.00 0.01 0.01 99 1006.5
20260507080021 48 285 1.0 1.0 0.00 0.01 0.01 98 1006.4
20260507075516 48 280 0.0 0.0 0.00 0.01 0.01 98 1006.4
20260507075013 48 272 0.0 1.0 0.00 0.01 0.01 98 1006.7
20260507074509 48 276 0.0 1.0 0.00 0.01 0.01 99 1006.6
20260507074008 48 270 0.0 0.0 0.00 0.01 0.01 99 1006.3
20260507073504 48 269 0.0 0.0 0.00 0.01 0.01 99 1006.3
20260507073000 48 272 0.0 1.0 0.00 0.01 0.01 99 1006.4
20260507072457 48 287 1.0 3.0 0.00 0.01 0.01 99 1006.4
20260507071949 49 275 0.0 0.0 0.00 0.01 0.01 99 1006.3
20260507071446 49 264 0.0 1.0 0.00 0.01 0.01 99 1006.2
20260507070943 49 291 1.0 1.0 0.00 0.01 0.01 99 1006.1
20260507070440 49 273 0.0 0.0 0.00 0.01 0.01 99 1006.3
20260507065937 49 268 0.0 0.0 0.00 0.01 0.01 99 1006.0
20260507065433 50 272 0.0 1.0 0.00 0.01 0.01 99 1006.3
20260507064931 50 272 0.0 0.0 0.00 0.01 0.01 99 1006.3
20260507064429 50 267 0.0 0.0 0.00 0.01 0.01 99 1005.9
20260507063927 50 272 0.0 1.0 0.00 0.01 0.01 99 1005.9
20260507063423 51 266 0.0 0.0 0.00 0.01 0.01 99 1005.9
20260507062920 51 274 0.0 0.0 0.00 0.01 0.01 99 1005.9
20260507062417 51 277 0.0 1.0 0.00 0.01 0.01 99 1006.0
20260507061915 51 270 0.0 0.0 0.00 0.01 0.01 99 1005.8
20260507061413 51 270 0.0 0.0 0.00 0.01 0.01 99 1005.7
20260507060911 51 277 0.0 1.0 0.00 0.01 0.01 99 1005.7
20260507060407 51 319 1.0 1.0 0.00 0.01 0.01 99 1005.8
20260507055904 50 300 1.0 1.0 0.00 0.01 0.01 99 1005.6
20260507055359 51 285 1.0 1.0 0.00 0.01 0.01 99 1005.5
20260507054856 51 287 1.0 2.0 0.00 0.01 0.01 99 1005.8
20260507054352 51 273 0.0 2.0 0.00 0.01 0.01 99 1005.6
20260507053850 51 274 0.0 1.0 0.00 0.01 0.01 99 1005.3
20260507053347 51 280 1.0 1.0 0.00 0.01 0.01 99 1005.7
20260507052846 51 272 0.0 1.0 0.00 0.01 0.01 99 1005.4
20260507052342 51 284 1.0 1.0 0.00 0.01 0.01 99 1005.2
20260507051840 51 283 0.0 0.0 0.00 0.01 0.01 99 1005.2
20260507051338 51 270 0.0 1.0 0.00 0.01 0.01 99 1005.5
20260507050834 51 282 1.0 2.0 0.00 0.01 0.01 98 1005.4
20260507050330 51 293 2.0 3.0 0.00 0.01 0.01 98 1005.6
20260507045827 52 276 0.0 1.0 0.00 0.01 0.01 98 1005.4
20260507045324 52 298 1.0 2.0 0.00 0.01 0.01 98 1005.2
20260507044821 52 291 1.0 2.0 0.00 0.01 0.01 98 1005.3
20260507044318 52 293 1.0 2.0 0.00 0.01 0.01 98 1005.2
20260507043814 52 305 2.0 2.0 0.00 0.01 0.01 98 1005.0
20260507043311 52 334 3.0 5.0 0.00 0.01 0.01 98 1005.1
20260507042807 52 277 1.0 2.0 0.00 0.01 0.01 98 1004.9
20260507042306 53 283 1.0 1.0 0.00 0.01 0.01 98 1004.9
20260507041800 53 293 1.0 2.0 0.05 0.01 0.01 97 1005.1
20260507041256 53 295 1.0 1.0 0.00 0.00 0.00 97 1005.0
20260507040753 53 297 1.0 2.0 0.00 0.00 0.00 97 1004.9
20260507040249 53 285 2.0 2.0 0.07 0.00 0.00 97 1005.1
20260507035745 53 280 1.0 1.0 0.19 0.61 0.61 96 1004.9
20260507035241 54 262 2.0 2.0 0.24 0.60 0.60 96 1004.9
20260507034739 54 287 1.0 6.0 0.07 0.57 0.57 96 1004.9
20260507034235 55 310 5.0 6.0 0.00 0.56 0.56 96 1004.9
20260507033734 55 336 3.0 6.0 0.00 0.56 0.56 97 1005.0
20260507033231 55 285 0.0 2.0 0.00 0.56 0.56 98 1004.9
20260507032728 55 292 2.0 3.0 0.00 0.56 0.56 98 1004.8
20260507032224 56 291 2.0 3.0 0.00 0.56 0.56 98 1004.5
20260507031721 56 277 0.0 2.0 0.00 0.56 0.56 98 1004.4
20260507031217 56 283 2.0 6.0 0.00 0.56 0.56 99 1004.5
20260507030714 56 318 3.0 3.0 0.00 0.56 0.56 99 1004.3
20260507030212 57 300 1.0 2.0 0.00 0.56 0.56 99 1004.3
20260507025709 57 332 2.0 2.0 0.05 0.56 0.56 99 1004.2
20260507025206 57 275 1.0 3.0 0.05 0.56 0.56 99 1004.4
20260507024704 57 289 0.0 3.0 0.00 0.55 0.55 99 1004.5
20260507024201 58 262 0.0 2.0 0.00 0.55 0.55 99 1004.5
20260507023656 58 298 1.0 3.0 0.00 0.55 0.55 99 1004.4
20260507023154 58 305 2.0 3.0 0.00 0.55 0.55 99 1004.4
20260507022651 58 262 1.0 1.0 0.00 0.55 0.55 99 1004.4
20260507022146 58 275 1.0 2.0 0.00 0.55 0.55 99 1004.6
20260507021643 58 265 0.0 0.0 0.00 0.55 0.55 99 1004.5
20260507021138 58 251 0.0 2.0 0.00 0.55 0.55 99 1004.4
20260507020637 58 257 1.0 3.0 0.00 0.55 0.55 99 1004.6
20260507020132 58 247 1.0 1.0 0.00 0.55 0.55 99 1004.6
20260507015631 58 250 1.0 3.0 0.00 0.55 0.55 99 1004.5
20260507015128 58 261 1.0 2.0 0.00 0.55 0.55 99 1004.5
20260507014625 58 250 1.0 1.0 0.00 0.55 0.55 99 1004.6
20260507014121 58 261 2.0 2.0 0.00 0.55 0.55 99 1004.6
20260507013618 58 246 1.0 2.0 0.00 0.55 0.55 99 1004.8
20260507013115 57 253 1.0 3.0 0.00 0.55 0.55 99 1004.7
20260507012612 57 255 1.0 2.0 0.00 0.55 0.55 99 1004.9
20260507012107 56 260 1.0 1.0 0.00 0.55 0.55 99 1004.8
20260507011606 56 259 0.0 1.0 0.07 0.55 0.55 99 1004.7
20260507011101 56 266 0.0 2.0 0.07 0.55 0.55 99 1004.8
20260507010556 56 262 0.0 1.0 0.00 0.54 0.54 99 1004.8
20260507010053 56 259 0.0 0.0 0.00 0.54 0.54 99 1004.8
20260507005550 56 241 1.0 1.0 0.00 0.54 0.54 99 1005.0
20260507005046 56 246 1.0 1.0 0.00 0.54 0.54 99 1004.9
20260507004543 56 250 1.0 1.0 0.00 0.54 0.54 99 1005.0
20260507004041 56 262 0.0 2.0 0.00 0.54 0.54 99 1005.0
20260507003537 56 246 1.0 1.0 0.00 0.54 0.54 99 1004.9
20260507003032 56 258 0.0 2.0 0.00 0.54 0.54 99 1004.9
20260507002529 57 253 0.0 1.0 0.00 0.54 0.54 99 1004.7
20260507002025 57 247 1.0 1.0 0.00 0.54 0.54 99 1004.8
20260507001521 57 253 1.0 1.0 0.00 0.54 0.54 99 1004.9
20260507001019 57 259 1.0 2.0 0.00 0.54 0.54 99 1004.8
20260507000515 57 259 1.0 2.0 0.00 0.54 0.54 99 1004.7
20260507000010 57 236 1.0 3.0 0.00 0.54 0.54 99 1004.8
20260506235508 57 258 1.0 2.0 0.00 0.54 0.54 99 1004.8
20260506235004 57 247 1.0 2.0 0.00 0.54 0.54 99 1004.8
20260506234502 57 260 1.0 2.0 0.00 0.54 0.54 99 1004.9
20260506233958 57 245 1.0 2.0 0.00 0.54 0.54 99 1004.8
20260506233455 57 250 1.0 2.0 0.00 0.54 0.54 99 1004.7
20260506232951 58 238 2.0 2.0 0.00 0.54 0.54 99 1004.8
20260506232448 58 252 1.0 2.0 0.00 0.54 0.54 99 1004.8
20260506231943 58 261 1.0 5.0 0.00 0.54 0.54 99 1004.7
20260506231441 58 253 1.0 2.0 0.00 0.54 0.54 99 1004.8
20260506230938 58 260 1.0 2.0 0.00 0.54 0.54 99 1004.8
20260506230434 58 264 1.0 5.0 0.00 0.54 0.54 99 1004.9
20260506225931 58 248 1.0 2.0 0.00 0.54 0.54 99 1004.9
20260506225429 58 252 1.0 2.0 0.00 0.54 0.54 99 1004.8
20260506224926 58 237 2.0 7.0 0.00 0.54 0.54 99 1004.9
20260506224423 58 257 2.0 3.0 0.00 0.54 0.54 99 1004.9
20260506223919 58 251 4.0 5.0 0.00 0.54 0.54 99 1004.9
20260506223415 58 246 2.0 3.0 0.00 0.54 0.54 99 1005.2
20260506222912 59 254 1.0 5.0 0.00 0.54 0.54 99 1005.0
20260506222409 59 260 2.0 3.0 0.00 0.54 0.54 99 1005.1
20260506221906 59 234 1.0 3.0 0.00 0.54 0.54 99 1004.9
20260506221403 59 233 2.0 3.0 0.07 0.54 0.54 99 1005.0
20260506220900 59 267 1.0 3.0 0.07 0.54 0.54 99 1005.2
20260506220355 59 157 4.0 5.0 0.00 0.53 0.53 99 1005.3
20260506215852 58 256 2.0 2.0 0.05 0.53 0.53 99 1005.1
20260506215348 58 264 1.0 2.0 0.05 0.53 0.53 99 1005.4
20260506214844 58 258 1.0 2.0 0.00 0.52 0.52 99 1005.3
20260506214341 58 267 2.0 2.0 0.00 0.52 0.52 99 1005.3
20260506213839 58 263 0.0 2.0 0.00 0.52 0.52 99 1005.5
20260506213336 58 270 0.0 2.0 0.00 0.52 0.52 99 1005.5